Location: Jefferson
(30.9666°N, 81.7901°W)
Time: 22:10:24
(UTC+00:00)

ARIANE 6 FM1 Upper Stage - Pass Details

Date: 22 September 2024
Orbit: 563 x 595 km, 62.0° (Epoch: 13 October)

Event Time Altitude Azimuth Distance (km) Brightness Sun altitude
Rises 00:41:44 0° 225° (SW) 2,755 6.7 -17.3°
Reaches altitude 10° 00:44:02 10° 233° (SW) 1,866 5.9 -17.8°
Maximum altitude 00:48:02 42° 304° (NW) 826 4.0 -18.7°
Drops below altitude 10° 00:52:06 10° 16° (NNE) 1,895 5.3 -19.5°
Sets 00:54:27 0° 24° (NNE) 2,803 6.1 -20.0°
